Погода в Хэгане

Китай     47°17′34″N   130°16′08″E
темп.,
°C
ветер,
м/с
пор.,
м/с
влажн.,
%
обл.,
%
осадки,
мм/ч
давл.,
гПа
погр.,
м
9 мая, вс
вс923:00+6ссв71495100 7.6 994676
02:00+5ссв81594100 12.6 993610
05:00+5ссв61396100 8.7 996680
08:00+5ссв71295100 12.9 999530
11:00+8св6883100 0.1 1001908
14:00+8ссв6784100 0.1 1003745
17:00+8ссв3684100 0.0 1005564
20:00+7ссз3690100 0.1 1007269
10 мая, пн
пн1023:00+7ссз2489100 0.1 1008137
02:00+6с2491100 0.1 1009160
05:00+7с1291100 0.1 101094
08:00+7св2387100 0.1 1011422
11:00+8св2280100 0.1 1012378
14:00+8с2483100 0.1 1012677
17:00+8ссз2485100 0.1 1013371
20:00+7сз2289100 0.1 101522
11 мая, вт
вт1123:00+7з1187100 0.0 101519
02:00+7з1188100 0.0 101612
05:00+7зсз1186100 0.0 101717
08:00+11ююв227071 0.0 1017579
11:00+14ююв335625 0.0 10161350
14:00+16ю3349100 0.0 10151828
17:00+15ююв345452 0.0 10141252
20:00+11юв3771100 0.0 1014144
12 мая, ср
ср1223:00+9юв2478100 0.0 101385
02:00+8вюв2485100 0.0 101186
05:00+8сз0083100 0.0 101050
08:00+11юв4769100 0.0 1006524
11:00+10ю71592100 3.7 10061055
14:00+13ююз8138150 5.1 10041007
17:00+15ююз7126715 0.3 10031004
20:00+10ююз612837 2.0 1005282
13 мая, чт
чт1323:00+9юз348593 0.0 100671
02:00+9юз3881100 0.0 1006147
05:00+9юз36780 0.0 1007124
08:00+16зюз474714 0.0 1007829
11:00+20зюз59295 0.0 10073129
14:00+22зюз6825100 0.0 10063200
17:00+19з3542100 0.0 1006126
20:00+15ю334876 0.0 100630